Regional Weather Roundup
Issued by NWS San Diego, CA

Home | Current Version | Previous Version | Text Only | Print | Product List | Glossary On
Versions: 1 2 3 4 5 6 7 8 9 10 11 12 13 14 15 16 17 18 19 20 21 22 23 24 25 26 27 28 29 30 31 32 33 34 35 36 37 38 39 40 41 42 43 44 45 46 47 48 49 50
000
ASUS46 KSGX 312211
RWRSGX

SAN DIEGO HOURLY WEATHER ROUNDUP
NATIONAL WEATHER SERVICE SAN DIEGO CA
300 PM PDT MON AUG 31 2015

NOTE: "FAIR" INDICATES FEW OR NO CLOUDS BELOW 12,000 FEET WITH NO
SIGNIFICANT WEATHER AND/OR OBSTRUCTIONS TO VISIBILITY.

CAZ042-043-060-061-PZZ750-775-312300-

GREATER SAN DIEGO AREA

CITY           SKY/WX    TMP DP  RH WIND       PRES   REMARKS
LINDBERGH FLD  MOSUNNY   75  62  64 SW9       29.90F
POINT LOMA       N/A     79  63  57 SW10        N/A
NATIONAL CITY    N/A     78  66  67 S5        29.89F
CHULA VISTA      N/A     76  67  72 W6        29.82F
IMPERIAL BEACH MOSUNNY   74  63  68 SW10G18   29.89F
BROWN FIELD    SUNNY     80  61  52 W12       29.88F
MIRAMAR MCAS   MOSUNNY   82  61  48 SW9       29.89F
MONTGOMERY FLD SUNNY     77  62  59 S10G20    29.89F

$$

NORTH SAN DIEGO COUNTY

CITY           SKY/WX    TMP DP  RH WIND       PRES   REMARKS
CAMP PENDLETON SUNNY     78  62  57 SW10      29.88F
OCEANSIDE AP   SUNNY     77  63  61 SW10      29.87F
OCEANSIDE HBR    N/A     73  66  79 SW7       29.91F
VISTA            N/A     77  65  65 SW3       29.86F
CARLSBAD       SUNNY     75  64  68 SW12      29.88F
DEL MAR          N/A     75  67  76 NW3       29.91F
FALLBROOK        N/A     82  63  52 SW6       29.86F
ESCONDIDO        N/A     84  63  49 S7        29.88F
SAN MARCOS       N/A     78  64  63 W12       29.86F
POWAY            N/A     86  61  43 CALM      29.87F

$$

EAST SAN DIEGO COUNTY

CITY           SKY/WX    TMP DP  RH WIND       PRES   REMARKS
RAMONA         SUNNY     85  56  37 W14G24    29.90F
SANTEE LAKES     N/A     80  64  56 SW6       29.86F
LA MESA          N/A     77  64  63 SW3       29.82F
JAMUL            N/A     82  64  54 W5        29.86F
DESCANSO N       N/A     85  56  36 W6        29.73F
CAMPO            N/A     88  46  23 SW17      29.90F

$$

ORANGE COUNTY AND THE LOS ANGELES BASIN

CITY           SKY/WX    TMP DP  RH WIND       PRES   REMARKS
JOHN WAYNE AP  MOSUNNY   76  62  62 SW12      29.88F
LAGUNA BEACH     N/A     78  67  68 S12       29.84F
LAKE FOREST FR   N/A     84  60  43 CALM      29.76F
SANTA ANA        N/A     83  66  55 SW2       29.82F
HUNTINGTON BCH   N/A     77  67  70 SW3       29.91F
LOS ALAMITOS   SUNNY     78  64  62 S9        29.88F
FULLERTON      SUNNY     80  62  54 SW7       29.86F
LONG BEACH     SUNNY     77  62  59 S9        29.88F
L.A. AP        MOSUNNY   75  63  66 W10       29.89F

$$

THE INLAND EMPIRE

CITY           SKY/WX    TMP DP  RH WIND       PRES   REMARKS
CORONA         SUNNY     86  62  44 W15       29.85F
CHINO          MOSUNNY   90  58  33 W15G23    29.86F
ONTARIO        MOSUNNY   90  52  27 SW13G18   29.86F
SAN BERNARDINO SUNNY     91  48  22 SW10      29.86F
RIVERSIDE AP   SUNNY     91  57  31 W9        29.85F
MORENO VALLEY    N/A     92  60  34 SW6       29.85F
MARCH ARB      SUNNY     90  56  31 NW12      29.87F
HORSETHIEF CYN   N/A     89  53  28 NW7       29.85F
PERRIS           N/A     93  55  27 NW6       29.87F
MENIFEE          N/A     93  38  15 SW5       29.90F
HEMET EAST       N/A     88  38  16 W6        29.87F
FRENCH VALLEY  FAIR      86  54  32 S12G18    29.89F
TEMECULA         N/A     86  62  44 SW7       29.82F

$$

SAN BERNARDINO AND RIVERSIDE COUNTY MOUNTAINS

CITY           SKY/WX    TMP DP  RH WIND       PRES   REMARKS
BIG BEAR AP    SUNNY     77  34  20 CALM      30.19F
ANGELUS OAKS     N/A     76  50  39 W2        29.74F
PINE COVE        N/A     76  39  26 SW1       29.84S

$$

SOUTHERN DESERT INCLUDING THE COACHELLA VALLEY

CITY           SKY/WX    TMP DP  RH WIND       PRES   REMARKS
PALM SPRINGS   MOSUNNY  104  42  12 VRB7      29.75F HX  99
THOUSAND PALMS   N/A    103  41  12 E1        29.72F HX  98
PALM DESERT      N/A    106  49  15 CALM      32.04S HX 102
THERMAL        SUNNY    105  45  13 SE10      29.68F HX 101
BLYTHE         SUNNY    105  58  21 SW8G26    29.72F HX 105
IMPERIAL AP    SUNNY    107  53  16 NE6       29.69F HX 105
EL CENTRO NAS  MOSUNNY  105  48  14 VRB6      29.71F HX 101
YUMA AZ        MOSUNNY  106  59  21 S10       29.71F HX 106
MEXICALI       MOSUNNY  104  54  18 SE6       29.72F HX 102

$$

UPPER DESERT

CITY           SKY/WX    TMP DP  RH WIND       PRES   REMARKS
VICTORVILLE AP SUNNY     93  28  10 SW6       29.91F
HESPERIA         N/A     91  42  18 W8        29.89F
APPLE VALLEY     N/A     92  33  12 S6        29.95F
PALMDALE       SUNNY     92  44  19 SW14      29.90F
LANCASTER      SUNNY     94  39  14 SW17      29.89F
EDWARDS AFB    MOSUNNY   94  32  11 SE7       29.86F
DAGGETT        SUNNY     96  39  13 VRB3      29.84F
29 PALMS N     MOSUNNY   99  41  13 E9G20     29.89F
NEEDLES        SUNNY    107  44  12 S17       29.75F HX 102

$$

REGIONAL REPORTS

CITY           SKY/WX    TMP DP  RH WIND       PRES   REMARKS
SANTA BARBARA  SUNNY     78  64  61 SW7       29.89F
LAS VEGAS NV   MOSUNNY  101  43  13 S6G20     29.78F HX  96
PHOENIX AZ     MOSUNNY  105  56  19 SW9       29.77F HX 104
TIJUANA        SUNNY     79  57  47 W8        29.91F
ENSENADA NW      N/A     74  32  21 SW2       29.88F

$$

OFFSHORE ISLANDS

CITY           SKY/WX    TMP DP  RH WIND       PRES   REMARKS
CATALINA ARPT  SUNNY     71  60  68 W7        29.94F
SAN CLEMENTE I MOSUNNY   73  64  74 NW3       29.88F
SAN NICOLAS IS MOSUNNY   73  61  65 W14G21    29.91F

$$

MARINE AND OFFSHORE BUOY REPORTS

STATION/POSITION SKY/WX   TEMP    WIND        PRES    SWELL
                          AIR SEA DIR/SP/G            HT/PER/DIR
                          (F)     (DEG/KT/KT) (MB)    (FT/S/D)
TANNER BANKS               67 69  320/ 19/ 23 1012.8F   5/300/16
S CLEMENTE BASIN           67 72  270/  8/ 10 1011.8F   5/280/ 9
SO. S. ROSA ISLA           65 66  310/ 16/ 19 1012.0F   5/15
W. S. BARBARA CH           64 65  310/ 19/ 23 1011.7F   5/290/ 8
M. S. BARBARA CH           69 71  250/  8/ 10 1013.0S
S. MONICA BASIN            70 74  250/  4/  6 1012.3F   3/220/16
S PEDRO CHANNEL               73                N/A     2/270/17
DANA POINT                    73                N/A     2/240/17
OCEANSIDE OFFSHR              74                N/A     2/210/17
TORREY PINES OTR              75                N/A     2/250/17
LA JOLLA 1                 71 75  240/ 10/ 13 1012.3F
MISSION BAY BUOY              76                N/A     2/210/13
SAN DIEGO BAY                 78              1013.1F
POINT LOMA SOUTH              73                N/A     3/260/17

$$



USA.gov is the U.S. government's official web portal to all federal, state and local government web resources and services.